Weather Service Report


424 
ASUS43 KDTX 021710
RWRMI 
MICHIGAN HOURLY REGIONAL WEATHER ROUNDUP
NATIONAL WEATHER SERVICE DETROIT/PONTIAC MI
100 PM EDT SUN AUG 02 2015

NOTE: "FAIR" INDICATES FEW OR NO CLOUDS BELOW 12,000 FEET WITH NO
SIGNIFICANT WEATHER AND/OR OBSTRUCTION TO VISIBILITY.

MIZ047>049-052>055-059>063-066>070-074>076-081>083-021800-
SOUTHEAST LOWER MICHIGAN
  
CITY           SKY/WX    TMP DP  RH WIND       PRES   REMARKS
ADRIAN         SUNNY     85  64  49 W13G21    29.86F                  
ALMA           PTSUNNY   83  71  65 SW16G25   29.75F                  
ANN ARBOR      SUNNY     85  67  54 SW18      29.82F                  
BAD AXE        PTSUNNY   81  67  62 SW14G21   29.73F                  
DETROIT CITY   SUNNY     86  65  49 SW21G26   29.80F                  
DETROIT        MOSUNNY   87  64  46 SW21G28   29.83F                  
FLINT          MOSUNNY   88  63  43 SW17G25   29.78F                  
GROSSE ILE     SUNNY     81  72  74 S15       29.83F                  
HILLSDALE      SUNNY     85  67  54 SW15      29.87F                  
HOWELL         SUNNY     87  58  37 SW16G22   29.80F                  

CITY           SKY/WX    TMP DP  RH WIND       PRES   REMARKS
JACKSON        SUNNY     86  64  47 W21G31    29.82F                  
LAMBERTVILLE   SUNNY     85  65  49 SW9       29.87S                  
LANSING        SUNNY     88  67  49 SW21G30   29.80F HX  91           
LAPEER         NOT AVBL                                               
MASON          SUNNY     83  64  52 SW13G23   29.81F                  
MONROE         SUNNY     85  65  51 W13G21    29.84F                  
MT. CLEMENS    MOSUNNY   87  66  48 SW15G21   29.79F                  
PONTIAC        MOSUNNY   85  63  47 SW16G26   29.80F                  
PORT HOPE        N/A     81  67  62 SW8       29.70F                  
PORT HURON     MOSUNNY   81  68  65 S13       29.80F                  
TRI CITIES     PTSUNNY   84  70  62 SW22G29   29.72F THUNDER          
YPSILANTI      SUNNY     91  66  43 SW21G29   29.83F HX  93           
$$
MIZ043>046-050>051-056>058-064>065-071>073-077>080-021800-
SOUTHWEST LOWER MICHIGAN
  
CITY           SKY/WX    TMP DP  RH WIND       PRES   REMARKS
BATTLE CREEK   SUNNY     88  67  49 SW24G30   29.82F HX  91           
BENTON HARBOR  SUNNY     86  67  52 SW20G29   29.82F                  
BIG RAPIDS     PTSUNNY   81  66  61 W24       29.73S                  
COLDWATER      SUNNY     83  67  58 SW13G24   29.85F                  
HOLLAND        SUNNY     85  66  53 SW21G31   29.79F                  
GRAND RAPIDS   PTSUNNY   88  66  48 W20G26    29.79F HX  90           
KALAMAZOO      SUNNY     87  67  51 SW17      29.83F HX  90           
MARSHALL       SUNNY     85  68  56 SW14G24   29.82F                  
MUSKEGON       CLOUDY    78  67  68 S20G29    29.76F                  
$$
MIZ016>042-021800-
NORTHERN LOWER MICHIGAN
  
CITY           SKY/WX    TMP DP  RH WIND       PRES   REMARKS
ALPENA         CLOUDY    67  61  81 SE5       29.69R                  
BEAVER ISLAND  CLOUDY    66  63  91 SW7       29.61F                  
BELLAIRE       CLOUDY    64  61  88 CALM      29.65F                  
CADILLAC       LGT RAIN  71  68  91 W9        29.72S                  
CHARLEVOIX     CLOUDY    66  64  93 S9        29.64F                  
FRANKFORT      CLOUDY    72  65  80 S14G20    29.67R                  
GRAYLING       CLOUDY    74  67  78 SW7       29.68F                  
HARBOR SPRINGS RAIN      64  62  94 SE6       29.62F                  
HOUGHTON LAKE  LGT RAIN  77  67  71 SW20G25   29.72R                  
MANISTEE       CLOUDY    68  63  83 S3        29.70F THUNDER          
OSCODA         CLOUDY    81  65  58 SW14      29.68F                  
PELLSTON       LGT RAIN  65  63  93 E8        29.61F                  
TRAVERSE CITY  LGT RAIN  79  67  66 SW5G16    29.62F                  
$$
MIZ007>008-015-021800-
EASTERN UPPER MICHIGAN
  
CITY           SKY/WX    TMP DP  RH WIND       PRES   REMARKS
KINROSS        PTSUNNY   72  64  78 SW8       29.60S                  
MACKINAC ISLAN   N/A     66  64  93 S10G17    29.61S                  
NEWBERRY       CLOUDY    72  64  76 S9        29.61R                  
S. S. MARIE    PTSUNNY   71  64  78 SW7       29.57F                  
$$
MIZ004>006-011>014-085-021800-
CENTRAL UPPER MICHIGAN
  
CITY           SKY/WX    TMP DP  RH WIND       PRES   REMARKS
MANISTIQUE     CLOUDY    72  63  73 W3        29.60S                  
ESCANABA       CLOUDY    68  63  83 W10       29.65R                  
MENOMINEE      CLOUDY    75  66  73 W10       29.64R                  
SAWYER-GWINN   MOSUNNY   66  63  88 SW9       29.62F                  
$$
MIZ001>003-009>011-084-021800-
WESTERN UPPER MICHIGAN
  
CITY           SKY/WX    TMP DP  RH WIND       PRES   REMARKS
IRON MOUNTAIN  LGT RAIN  66  63  90 E10       29.54F                  
HOUGHTON       PTSUNNY   67  55  65 W18G26    29.61R                  
COPPER HARBOR    N/A     67  60  78 N10       29.57R                  
IRONWOOD       CLOUDY    70  63  78 W12       29.62R                  
$$

ABBREVIATIONS USED IN REMARKS
   TC - TEMPERATURE IN CELSIUS
  WCI - WIND CHILL INDEX
   HX - HEAT INDEX
  VSB - VISIBILITY



544 
ASUS43 KDTX 021710
RWRMI 
MICHIGAN HOURLY REGIONAL WEATHER ROUNDUP
NATIONAL WEATHER SERVICE DETROIT/PONTIAC MI
100 PM EDT SUN AUG 02 2015

NOTE: "FAIR" INDICATES FEW OR NO CLOUDS BELOW 12,000 FEET WITH NO
SIGNIFICANT WEATHER AND/OR OBSTRUCTION TO VISIBILITY.

MIZ047>049-052>055-059>063-066>070-074>076-081>083-021800-
SOUTHEAST LOWER MICHIGAN
  
CITY           SKY/WX    TMP DP  RH WIND       PRES   REMARKS
ADRIAN         SUNNY     85  64  49 W13G21    29.86F                  
ALMA           PTSUNNY   83  71  65 SW16G25   29.75F                  
ANN ARBOR      SUNNY     85  67  54 SW18      29.82F                  
BAD AXE        PTSUNNY   81  67  62 SW14G21   29.73F                  
CARO           PTSUNNY   84  70  62 SW15G22   29.75F                  
DETROIT CITY   SUNNY     86  65  49 SW21G26   29.80F                  
DETROIT        MOSUNNY   87  64  46 SW21G28   29.83F                  
FLINT          MOSUNNY   88  63  43 SW17G25   29.78F                  
GROSSE ILE     SUNNY     81  72  74 S15       29.83F                  
HILLSDALE      SUNNY     85  67  54 SW15      29.87F                  
HOWELL         SUNNY     87  58  37 SW16G22   29.80F                  

CITY           SKY/WX    TMP DP  RH WIND       PRES   REMARKS
JACKSON        SUNNY     86  64  47 W21G31    29.82F                  
LAMBERTVILLE   SUNNY     85  65  49 SW9       29.87S                  
LANSING        SUNNY     88  67  49 SW21G30   29.80F HX  91           
LAPEER         FAIR      86  64  47 SW14G22   29.78F                  
MASON          SUNNY     83  64  52 SW13G23   29.81F                  
MONROE         SUNNY     85  65  51 W13G21    29.84F                  
MT. CLEMENS    MOSUNNY   87  66  48 SW15G21   29.79F                  
PONTIAC        MOSUNNY   85  63  47 SW16G26   29.80F                  
PORT HOPE        N/A     81  67  62 SW8       29.70F                  
PORT HURON     MOSUNNY   81  68  65 S13       29.80F                  
TRI CITIES     PTSUNNY   84  70  62 SW22G29   29.72F THUNDER          
MIDLAND        FAIR      86  68  55 SW16G22   29.70F                  
TROY           MOSUNNY   87  64  45 SW18G26   29.82F                  
SAGINAW HB     MOSUNNY   84  70  61 SW16G25   29.73F                  
$$
MIZ043>046-050>051-056>058-064>065-071>073-077>080-021800-
SOUTHWEST LOWER MICHIGAN
  
CITY           SKY/WX    TMP DP  RH WIND       PRES   REMARKS
BATTLE CREEK   SUNNY     88  67  49 SW24G30   29.82F HX  91           
BENTON HARBOR  SUNNY     86  67  52 SW20G29   29.82F                  
BIG RAPIDS     PTSUNNY   81  66  61 W24       29.73S                  
COLDWATER      SUNNY     83  67  58 SW13G24   29.85F                  
FREMONT        FAIR      79  69  71 SW13G21   29.76S                  
HOLLAND        SUNNY     85  66  53 SW21G31   29.79F                  
GRAND RAPIDS   PTSUNNY   88  66  48 W20G26    29.79F HX  90           
IONIA          PTSUNNY   88  67  51 W22G28    29.77F HX  91           
KALAMAZOO      SUNNY     87  67  51 SW17      29.83F HX  90           
LUDINGTON      CLOUDY    76  71  83 SW15      29.72F                  
MARSHALL       SUNNY     85  68  56 SW14G24   29.82F                  
MOUNT PLEASANT PTSUNNY   89  68  49 SW22G28   29.70F HX  92           
MUSKEGON       CLOUDY    78  67  68 S20G29    29.76F                  
SOUTH HAVEN    SUNNY     83  66  57 SW18G30   29.81F                  
$$
MIZ016>042-021800-
NORTHERN LOWER MICHIGAN
  
CITY           SKY/WX    TMP DP  RH WIND       PRES   REMARKS
ALPENA         CLOUDY    67  61  81 SE5       29.69R                  
BEAVER ISLAND  CLOUDY    66  63  91 SW7       29.61F                  
BELLAIRE       CLOUDY    64  61  88 CALM      29.65F                  
CADILLAC       LGT RAIN  71  68  91 W9        29.72S                  
CHARLEVOIX     CLOUDY    66  64  93 S9        29.64F                  
FRANKFORT      CLOUDY    72  65  80 S14G20    29.67R                  
GRAYLING       CLOUDY    74  67  78 SW7       29.68F                  
HARBOR SPRINGS RAIN      64  62  94 SE6       29.62F                  
HOUGHTON LAKE  LGT RAIN  77  67  71 SW20G25   29.72R                  
MANISTEE       CLOUDY    68  63  83 S3        29.70F THUNDER          
OSCODA         CLOUDY    81  65  58 SW14      29.68F                  
PELLSTON       LGT RAIN  65  63  93 E8        29.61F                  
ROGERS CITY    CLOUDY    65  62  90 S7        29.66F                  
TRAVERSE CITY  LGT RAIN  79  67  66 SW5G16    29.62F                  
$$
MIZ007>008-015-021800-
EASTERN UPPER MICHIGAN
  
CITY           SKY/WX    TMP DP  RH WIND       PRES   REMARKS
KINROSS        PTSUNNY   72  64  78 SW8       29.60S                  
MACKINAC ISLAN   N/A     66  64  93 S10G17    29.61S                  
NEWBERRY       CLOUDY    72  64  76 S9        29.61R                  
S. S. MARIE    PTSUNNY   71  64  78 SW7       29.57F                  
MUNISING         N/A     69  63  81 S13       29.56F                  
$$
MIZ004>006-011>014-085-021800-
CENTRAL UPPER MICHIGAN
  
CITY           SKY/WX    TMP DP  RH WIND       PRES   REMARKS
MANISTIQUE     CLOUDY    72  63  73 W3        29.60S                  
ESCANABA       CLOUDY    68  63  83 W10       29.65R                  
MENOMINEE      CLOUDY    75  66  73 W10       29.64R                  
SAWYER-GWINN   MOSUNNY   66  63  88 SW9       29.62F                  
$$
MIZ001>003-009>011-084-021800-
WESTERN UPPER MICHIGAN
  
CITY           SKY/WX    TMP DP  RH WIND       PRES   REMARKS
IRON MOUNTAIN  LGT RAIN  66  63  90 E10       29.54F                  
HOUGHTON       PTSUNNY   67  55  65 W18G26    29.61R                  
COPPER HARBOR    N/A     67  60  78 N10       29.57R                  
IRONWOOD       CLOUDY    70  63  78 W12       29.62R                  
$$

ABBREVIATIONS USED IN REMARKS
   TC - TEMPERATURE IN CELSIUS
  WCI - WIND CHILL INDEX
   HX - HEAT INDEX
  VSB - VISIBILITY


Return to Home page


Western Regional Climate Center, wrcc@dri.edu